Weather History for Denver, CO

Change the Weather History Date:

Wednesday, February 13, 2013

  Actual Average Record
Temperature  
Mean Temperature 34 °F 32 °F  
Max Temperature 48 °F 46 °F 73 °F (1954)
Min Temperature 19 °F 18 °F -14 °F (1905)
Degree Days  
Heating Degree Days 31 33  
Month to date heating degree days 397 439  
Since 1 July heating degree days 3697 3970  
Cooling Degree Days 0 0  
Month to date cooling degree days 0 0  
Year to date cooling degree days 0 0  
Moisture  
Dew Point 6 °F    
Average Humidity 30    
Maximum Humidity 42    
Minimum Humidity 18    
Precipitation  
Precipitation 0.00 in 0.01 in 0.30 in (1909)
Month to date precipitation 0.01 0.16  
Year to date precipitation 0.32 0.57  
Snow  
Snow 0.00 in - - ()
Month to date snowfall T  
Since 1 July snowfall 17  
Snow Depth 0.00 in    
Sea Level Pressure  
Sea Level Pressure 29.96 in    
Wind  
Wind Speed 13 mph (WSW)    
Max Wind Speed 25 mph    
Max Gust Speed 32 mph    
Visibility 10 miles    
Events      
T = Trace of Precipitation, MM = Missing Value Source: NWS Daily Summary

Daily Weather History Graph

Daily Weather History Graph

Search for Another Location

Airport:

Trip Planner

Search our weather history database for the weather conditions in past years. The results will help you decide how hot, cold, wet, or windy it might be!

Date:

Astronomy

Feb. 13, 2013 Rise Set
Actual Time 6:53 AM MST 5:32 PM MST
Civil Twilight 6:25 AM MST 6:00 PM MST
Nautical Twilight 5:53 AM MST 6:32 PM MST
Astronomical Twilight 5:22 AM MST 7:03 PM MST
Moon 8:24 AM MST (2/13) 9:37 PM MST (2/13)
Length of Visible Light 11h 35m
Length of Day
10h 39m
Waxing Crescent, 14% of the Moon is Illuminated
Feb 13
Waxing Crescent
Feb 17
First Quarter
Feb 25
Full
Mar 4
Last Quarter
Mar 11
New

Hourly Weather History & Observations

Time (MST) Temp. Windchill Dew Point Humidity Pressure Visibility Wind Dir Wind Speed Gust Speed Precip Events Conditions
12:53 AM 21.0 °F 9.9 °F -0.0 °F 40% 30.03 in 10.0 mi SSW 10.4 mph - N/A   Partly Cloudy
1:53 AM 26.1 °F 15.0 °F 1.0 °F 34% 29.98 in 10.0 mi SW 12.7 mph - N/A   Mostly Cloudy
2:53 AM 25.0 °F 13.6 °F 1.0 °F 36% 29.96 in 10.0 mi SSW 12.7 mph - N/A   Scattered Clouds
3:53 AM 25.0 °F 12.6 °F 1.9 °F 37% 29.95 in 10.0 mi SSW 15.0 mph - N/A   Scattered Clouds
4:53 AM 26.1 °F 13.6 °F 3.9 °F 39% 29.94 in 10.0 mi SSW 16.1 mph - N/A   Scattered Clouds
5:53 AM 25.0 °F 12.2 °F 3.9 °F 41% 29.94 in 10.0 mi SSW 16.1 mph - N/A   Scattered Clouds
6:53 AM 26.1 °F 13.6 °F 5.0 °F 41% 29.97 in 10.0 mi SSW 16.1 mph - N/A   Partly Cloudy
7:53 AM 30.9 °F 20.2 °F 6.1 °F 35% 29.96 in 10.0 mi SSW 15.0 mph - N/A   Scattered Clouds
8:53 AM 36.0 °F 28.0 °F 7.0 °F 30% 29.95 in 10.0 mi SW 11.5 mph - N/A   Mostly Cloudy
9:53 AM 43.0 °F 37.7 °F 7.0 °F 23% 29.91 in 10.0 mi SW 9.2 mph - N/A   Mostly Cloudy
10:53 AM 44.1 °F 36.5 °F 6.1 °F 21% 29.97 in 10.0 mi NW 17.3 mph - N/A   Mostly Cloudy
11:53 AM 37.0 °F 28.1 °F 8.1 °F 30% 30.00 in 10.0 mi NW 15.0 mph - N/A   Mostly Cloudy
12:53 PM 41.0 °F 34.3 °F 8.1 °F 26% 29.97 in 10.0 mi WNW 11.5 mph - N/A   Mostly Cloudy
1:53 PM 46.0 °F 40.6 °F 6.1 °F 20% 29.91 in 10.0 mi West 11.5 mph - N/A   Mostly Cloudy
2:53 PM 48.0 °F - 6.1 °F 18% 29.88 in 10.0 mi WSW 17.3 mph 24.2 mph N/A   Scattered Clouds
3:53 PM 45.0 °F 36.0 °F 8.1 °F 22% 29.90 in 10.0 mi West 25.3 mph 32.2 mph N/A   Scattered Clouds
4:34 PM 42.8 °F 33.5 °F 8.6 °F 25% 29.90 in 10.0 mi West 23.0 mph - N/A   Scattered Clouds
4:53 PM 42.1 °F 33.9 °F 9.0 °F 26% 29.92 in 10.0 mi West 17.3 mph - N/A   Scattered Clouds
5:53 PM 39.9 °F 32.5 °F 9.0 °F 28% 29.94 in 10.0 mi WNW 12.7 mph - N/A   Scattered Clouds
6:53 PM 39.0 °F 31.8 °F 9.0 °F 29% 29.96 in 10.0 mi WNW 11.5 mph - N/A   Scattered Clouds
7:53 PM 32.0 °F 27.5 °F 9.0 °F 38% 30.00 in 10.0 mi North 4.6 mph - N/A   Scattered Clouds
8:53 PM 34.0 °F 31.0 °F 9.0 °F 35% 29.98 in 10.0 mi SE 3.5 mph - N/A   Scattered Clouds
9:53 PM 28.9 °F 19.2 °F 9.0 °F 43% 29.97 in 10.0 mi South 11.5 mph - N/A   Scattered Clouds
10:53 PM 28.0 °F 18.6 °F 9.0 °F 45% 29.98 in 10.0 mi South 10.4 mph - N/A   Scattered Clouds
11:53 PM 21.0 °F 9.9 °F 8.1 °F 57% 30.04 in 10.0 mi East 10.4 mph - N/A   Scattered Clouds